1493722800.21,7098,13.31,73806.5,2.49,2.13,2.17,0,*40
1493722801.47,7099,13.31,73804.3,2.51,2.17,2.13,0,*48
1493722802.7,7100,13.31,73806.5,2.49,2.13,2.13,0,*44
1493722803.92,7101,13.31,73800.5,2.49,2.01,2.05,0,*41
1493722805.17,7102,13.31,73804.5,2.51,2.13,2.13,0,*4F
1493722806.4,7103,13.31,73806.8,2.49,2.01,2.01,0,*47
1493722807.57,7104,13.31,73802.3,2.49,1.83,1.83,0,*40
1493722808.81,7105,13.31,73802.3,2.51,1.89,1.89,0,*48
1493722809.98,7106,13.31,73806.0,2.49,1.79,1.79,0,*42
1493722811.18,7107,13.31,73806.5,2.51,1.83,1.79,0,*4F
1493722812.4,7108,13.31,73808.8,2.49,2.01,2.05,0,*48
1493722813.63,7109,13.31,73814.5,2.49,2.13,2.01,0,*4E
1493722814.85,7110,13.31,73812.0,2.49,1.93,1.93,0,*45
1493722816.1,7111,13.31,73816.8,2.51,2.17,2.17,0,*4D
1493722817.33,7112,13.31,73824.3,2.51,2.17,2.27,0,*4D
1493722818.57,7113,13.31,73826.0,2.51,2.01,1.93,0,*47
1493722819.77,7114,13.31,73826.3,2.51,1.75,1.79,0,*44
1493722821.0,7115,13.31,73822.3,2.49,1.55,1.51,0,*44
1493722822.17,7116,13.31,73818.3,2.49,1.75,1.75,0,*43
1493722823.41,7117,13.31,73824.0,2.51,1.67,1.63,0,*4F
1493722824.65,7118,13.31,73826.3,2.49,1.29,1.21,0,*45
1493722825.87,7119,13.31,73830.3,2.49,1.51,1.55,0,*48
1493722827.09,7120,13.31,73832.0,2.49,1.51,1.51,0,*46
1493722828.26,7121,13.31,73830.8,2.49,1.83,1.83,0,*47
1493722829.51,7122,13.31,73832.0,2.47,2.13,2.25,0,*4F
1493722830.71,7123,13.31,73830.5,2.49,2.39,2.35,0,*49
1493722831.9,7124,13.31,73828.3,2.49,2.39,2.35,0,*4E
1493722833.15,7125,13.31,73832.0,2.51,2.05,2.17,0,*49
1493722834.4,7126,13.31,73838.5,2.51,2.39,2.39,0,*49
1493722835.65,7127,13.31,73828.0,2.51,2.39,2.39,0,*48
1493722836.9,7128,13.31,73824.5,2.51,2.47,2.47,0,*47
1493722838.13,7129,13.31,73830.8,2.53,2.43,2.51,0,*47
1493722839.36,7130,13.31,73828.3,2.53,2.43,2.43,0,*4C
1493722840.58,7131,13.31,73830.0,2.57,2.43,2.43,0,*49
1493722841.78,7132,13.31,73830.3,2.57,2.25,2.35,0,*4B
1493722843.01,7133,13.31,73838.3,2.53,1.13,1.21,0,*4E
1493722844.18,7134,13.31,73836.8,2.53,1.83,1.79,0,*4D
1493722845.41,7135,13.31,73836.5,2.53,2.09,2.09,0,*49
1493722846.63,7136,13.31,73836.3,2.53,2.05,2.09,0,*46
1493722847.85,7137,13.31,73838.3,2.53,2.43,2.43,0,*4B
1493722849.07,7138,13.31,73832.3,2.53,2.05,1.97,0,*4C
1493722850.29,7139,13.31,73836.8,2.57,2.13,2.09,0,*4A
1493722851.51,7140,13.31,73832.8,2.57,1.89,1.97,0,*40
1493722852.7,7141,13.31,73838.3,2.57,2.25,2.35,0,*4F
1493722853.91,7142,13.31,73834.8,2.57,1.89,1.89,0,*4D
1493722855.08,7143,13.31,73836.0,2.57,1.79,1.79,0,*4C
1493722856.31,7144,13.31,73832.0,2.53,2.01,2.01,0,*4F
1493722857.53,7145,13.31,73840.5,2.53,2.05,1.93,0,*42
1493722858.7,7146,13.31,73834.5,2.53,1.83,1.79,0,*48
1493722859.92,7147,13.31,73832.3,2.57,2.01,2.01,0,*48
1493722861.11,7148,13.31,73834.8,2.53,2.21,2.27,0,*45
1493722862.33,7149,13.31,73832.3,2.57,2.47,2.47,0,*46
1493722863.55,7150,13.31,73832.8,2.57,2.25,2.25,0,*4E
1493722864.77,7151,13.31,73824.8,2.57,2.13,2.21,0,*4E
1493722865.98,7152,13.31,73830.3,2.57,1.89,2.01,0,*4F
1493722867.21,7153,13.31,73836.0,2.53,2.09,2.05,0,*45
1493722868.43,7154,13.31,73836.8,2.53,1.97,2.05,0,*46
1493722869.6,7155,13.31,73832.0,2.57,2.35,2.31,0,*4F
1493722870.84,7156,13.31,73834.5,2.59,2.55,2.59,0,*4A
1493722872.07,7157,13.31,73832.5,2.59,2.59,2.61,0,*4C
1493722873.3,7158,13.31,73828.3,2.61,2.39,2.39,0,*43
1493722874.54,7159,13.31,73826.3,2.59,2.55,2.47,0,*4A
1493722875.72,7160,13.31,73824.8,2.61,2.65,2.65,0,*48
1493722876.94,7161,13.31,73822.3,2.61,2.51,2.51,0,*49
1493722878.16,7162,13.31,73826.8,2.61,2.13,2.05,0,*4D
1493722879.36,7163,13.31,73830.3,2.61,2.25,2.27,0,*49
1493722880.55,7164,13.31,73820.0,2.61,2.35,2.47,0,*49
1493722881.74,7165,13.31,73824.8,2.61,2.61,2.59,0,*46
1493722882.97,7166,13.31,73822.5,2.61,2.47,2.47,0,*4E
1493722884.16,7167,13.31,73822.0,2.61,2.25,2.35,0,*4E
1493722885.37,7168,13.31,73808.3,2.61,1.85,1.89,0,*4C
1493722886.59,7169,13.31,73810.0,2.61,1.67,1.63,0,*45
1493722887.81,7170,13.31,73804.3,2.61,2.05,2.05,0,*49
1493722889.04,7171,13.31,73804.3,2.61,2.17,2.17,0,*48
1493722890.2,7172,13.31,73804.5,2.61,2.35,2.35,0,*4B
1493722891.43,7173,13.31,73802.0,2.61,1.85,1.85,0,*4A
1493722892.64,7174,13.31,73806.3,2.61,1.89,2.01,0,*4E
1493722893.87,7175,13.31,73812.3,2.61,2.47,2.47,0,*4C
1493722895.09,7176,13.31,73818.8,2.61,1.85,1.85,0,*4F
1493722896.29,7177,13.31,73814.5,2.61,1.79,1.85,0,*4D
1493722897.52,7178,13.31,73830.5,2.61,2.17,2.17,0,*41
1493722898.75,7179,13.31,73824.8,2.63,2.59,2.61,0,*49
1493722899.97,7180,13.31,73824.3,2.63,2.65,2.73,0,*43
1493722901.21,7181,13.31,73832.0,2.63,2.85,2.85,0,*45
1493722902.43,7182,13.31,73836.3,2.65,2.77,2.77,0,*40
1493722903.66,7183,13.31,73828.3,2.65,2.51,2.43,0,*42
1493722904.88,7184,13.31,73832.5,2.65,2.39,2.43,0,*4B
1493722906.1,7185,13.31,73830.8,2.65,2.69,2.69,0,*47
1493722907.32,7186,13.31,73828.0,2.67,2.85,2.91,0,*43
1493722908.51,7187,13.31,73828.5,2.67,2.95,2.95,0,*47
1493722909.71,7188,13.31,73826.3,2.69,2.95,2.95,0,*46
1493722910.97,7189,13.31,73826.0,2.69,2.81,2.81,0,*47
1493722912.19,7190,13.31,73812.5,2.69,2.81,2.91,0,*4E
1493722913.37,7191,13.31,73818.0,2.71,2.61,2.61,0,*47
1493722914.6,7192,13.31,73818.8,2.71,2.47,2.47,0,*44
1493722915.82,7193,13.31,73826.3,2.71,2.13,2.25,0,*40
1493722917.07,7194,13.31,73836.3,2.69,2.13,2.25,0,*4E
1493722918.28,7195,13.31,73832.0,2.69,2.65,2.65,0,*4A
1493722919.49,7196,13.31,73834.5,2.69,2.65,2.65,0,*49
1493722920.73,7197,13.31,73834.8,2.69,2.73,2.73,0,*48
1493722921.99,7198,13.31,73826.8,2.69,2.81,2.81,0,*47
1493722923.21,7199,13.31,73828.3,2.71,2.01,1.97,0,*43
1493722924.43,7200,13.31,73824.8,2.71,1.55,1.43,0,*4B
1493722925.65,7201,13.31,73828.0,2.71,1.97,1.89,0,*42
1493722926.87,7202,13.31,73836.3,2.71,1.55,1.63,0,*4B
1493722928.1,7203,13.31,73836.3,2.71,1.97,2.01,0,*43
1493722929.3,7204,13.31,73832.3,2.71,2.35,2.39,0,*44
1493722930.55,7205,13.31,73830.0,2.69,2.59,2.47,0,*4F
1493722931.8,7206,13.31,73834.5,2.69,2.55,2.59,0,*4F
1493722932.98,7207,13.31,73830.5,2.71,2.61,2.61,0,*4B
1493722934.21,7208,13.31,73828.8,2.71,2.51,2.51,0,*44
1493722935.41,7209,13.31,73834.8,2.71,2.25,2.27,0,*47
1493722936.64,7210,13.31,73830.0,2.71,2.51,2.51,0,*4D
1493722937.86,7211,13.31,73836.8,2.71,2.59,2.47,0,*43
1493722939.09,7212,13.31,73830.0,2.71,2.17,2.13,0,*4B
1493722940.3,7213,13.31,73834.5,2.71,2.59,2.61,0,*45
1493722941.5,7214,13.31,73840.0,2.71,2.39,2.35,0,*45
1493722942.73,7215,13.31,73850.3,2.71,2.39,2.39,0,*48
1493722943.93,7216,13.31,73834.5,2.71,2.59,2.61,0,*40
1493722945.11,7217,13.31,73832.3,2.71,2.61,2.61,0,*4A
1493722946.34,7218,13.31,73830.0,2.71,2.47,2.51,0,*42
1493722947.6,7219,13.31,73832.0,2.73,1.85,1.85,0,*46
1493722948.82,7220,13.31,73828.5,2.71,1.63,1.67,0,*4A
1493722950.05,7221,13.31,73832.3,2.71,2.13,2.25,0,*4A
1493722951.22,7222,13.31,73838.5,2.71,2.27,2.27,0,*4C
1493722952.45,7223,13.31,73836.0,2.71,2.51,2.51,0,*4D
1493722953.65,7224,13.31,73834.5,2.71,2.61,2.59,0,*41
1493722954.86,7225,13.31,73832.8,2.73,2.61,2.61,0,*49
1493722956.11,7226,13.31,73824.8,2.73,2.77,2.77,0,*4A
1493722957.34,7227,13.31,73820.8,2.71,2.77,2.77,0,*49
1493722958.52,7228,13.31,73822.3,2.71,2.61,2.61,0,*46
1493722959.72,7229,13.31,73824.3,2.71,2.69,2.61,0,*4F
1493722960.94,7230,13.31,73822.0,2.71,2.13,2.01,0,*4C
1493722962.16,7231,13.31,73828.3,2.71,0.83,0.91,0,*4D
1493722963.38,7232,13.31,73830.8,2.71,2.01,2.01,0,*4D
1493722964.55,7233,13.31,73830.0,2.71,2.35,2.35,0,*4C
1493722965.78,7234,13.31,73832.5,2.71,2.17,2.25,0,*4A
1493722966.98,7235,13.31,73834.0,2.69,2.31,2.31,0,*43
1493722968.22,7236,13.31,73834.3,2.69,2.21,2.21,0,*40
1493722969.47,7237,13.31,73838.5,2.69,2.25,2.25,0,*41
1493722970.7,7238,13.31,73842.0,2.71,2.39,2.39,0,*47
1493722971.92,7239,13.31,73840.3,2.71,2.47,2.47,0,*46
1493722973.15,7240,13.31,73840.8,2.71,2.39,2.47,0,*41
1493722974.37,7241,13.31,73844.8,2.71,2.25,2.25,0,*49
1493722975.59,7242,13.31,73846.3,2.71,2.39,2.47,0,*43
1493722976.8,7243,13.31,73840.0,2.71,2.27,2.39,0,*44
1493722978.05,7244,13.31,73830.0,2.73,2.39,2.47,0,*47
1493722979.23,7245,13.31,73820.8,2.71,2.61,2.61,0,*4D
1493722980.49,7246,13.31,73810.0,2.73,2.59,2.59,0,*4C
1493722981.69,7247,13.31,73804.0,2.73,2.35,2.27,0,*4E
1493722982.86,7248,13.31,73812.3,2.71,2.27,2.35,0,*43
1493722984.05,7249,13.31,73816.8,2.71,2.61,2.69,0,*49
1493722985.28,7250,13.31,73814.5,2.71,2.73,2.73,0,*49
1493722986.53,7251,13.31,73806.3,2.73,2.59,2.59,0,*4A
1493722987.74,7252,13.31,73816.8,2.73,2.61,2.61,0,*49
1493722989.0,7253,13.31,73822.3,2.73,2.47,2.51,0,*4F
1493722990.26,7254,13.31,73816.0,2.73,2.51,2.51,0,*4F
1493722991.47,7255,13.31,73814.8,2.73,2.61,2.61,0,*4E
1493722992.7,7256,13.31,73812.5,2.73,2.61,2.69,0,*45
1493722993.92,7257,13.31,73814.0,2.75,2.73,2.73,0,*4A
1493722995.15,7258,13.31,73814.0,2.75,2.77,2.81,0,*4C
1493722996.38,7259,13.31,73814.3,2.75,2.73,2.77,0,*40
1493722997.6,7260,13.31,73812.3,2.79,2.85,2.85,0,*42
1493722998.82,7261,13.31,73822.0,2.79,2.77,2.77,0,*43
1493723000.03,7262,13.31,73810.0,2.75,2.65,2.73,0,*4B
1493723001.23,7263,13.31,73808.5,2.75,2.55,2.61,0,*4A
1493723002.44,7264,13.31,73814.3,2.79,2.65,2.69,0,*4A
1493723003.64,7265,13.31,73818.3,2.79,2.69,2.65,0,*4B
1493723004.88,7266,13.31,73812.0,2.75,2.17,2.17,0,*48
1493723006.1,7267,13.31,73808.0,2.79,1.93,1.85,0,*42
1493723007.32,7268,13.31,73806.8,2.75,1.59,1.59,0,*46
1493723008.52,7269,13.31,73806.3,2.75,1.83,1.89,0,*4D
1493723009.72,7270,13.31,73804.8,2.73,1.75,1.75,0,*49
1493723010.94,7271,13.31,73800.5,2.71,1.67,1.67,0,*4A
1493723012.2,7272,13.31,73802.8,2.73,1.29,1.29,0,*4B
1493723013.43,7273,13.31,73806.0,2.71,1.55,1.51,0,*4C
1493723014.68,7274,13.31,73808.0,2.69,2.09,2.09,0,*46
1493723015.85,7275,13.31,73814.3,2.71,2.27,2.35,0,*4D
1493723017.07,7276,13.31,73816.8,2.71,2.01,1.97,0,*41
1493723018.29,7277,13.31,73818.8,2.71,1.97,1.97,0,*4C
1493723019.52,7278,13.31,73824.5,2.71,1.85,1.85,0,*43
1493723020.72,7279,13.31,73830.8,2.71,1.85,1.79,0,*41
1493723021.96,7280,13.31,73834.0,2.71,1.85,1.85,0,*44
1493723023.21,7281,13.31,73826.5,2.69,1.97,2.09,0,*48
1493723024.46,7282,13.31,73820.8,2.69,2.13,2.13,0,*4F
1493723025.66,7283,13.31,73826.8,2.69,2.31,2.31,0,*4E
1493723026.91,7284,13.31,73830.0,2.69,2.43,2.43,0,*49
1493723028.16,7285,13.31,73828.5,2.67,2.59,2.59,0,*46
1493723029.38,7286,13.31,73826.3,2.71,2.69,2.77,0,*4D
1493723030.63,7287,13.31,73826.8,2.69,2.55,2.55,0,*4A
1493723031.88,7288,13.31,73832.3,2.69,2.21,2.13,0,*44
1493723033.13,7289,13.31,73834.8,2.69,2.01,2.09,0,*4C
1493723034.38,7290,13.31,73832.5,2.69,1.97,1.97,0,*4C
1493723035.6,7291,13.31,73832.5,2.69,1.75,1.71,0,*49
1493723036.85,7292,13.31,73834.5,2.69,2.13,2.21,0,*4F
1493723038.1,7293,13.31,73838.8,2.67,2.43,2.43,0,*41
1493723039.35,7294,13.31,73842.8,2.69,2.59,2.59,0,*48
1493723040.61,7295,13.31,73840.8,2.69,2.59,2.59,0,*49
1493723041.86,7296,13.31,73836.8,2.69,2.55,2.51,0,*4E
1493723043.04,7297,13.31,73846.5,2.71,2.61,2.61,0,*42
1493723044.24,7298,13.31,73840.8,2.71,2.61,2.69,0,*45
1493723045.42,7299,13.31,73838.5,2.71,2.61,2.61,0,*4C
1493723046.67,7300,13.31,73834.0,2.73,2.39,2.39,0,*4F
1493723047.9,7301,13.31,73834.3,2.71,1.97,1.85,0,*4F
1493723049.1,7302,13.31,73852.5,2.71,1.33,1.41,0,*4A
1493723050.36,7303,13.31,73828.0,2.69,1.85,1.85,0,*47
1493723051.58,7304,13.31,73826.5,2.69,1.75,1.71,0,*44
1493723052.84,7305,13.31,73838.0,2.69,1.85,1.85,0,*41
1493723054.08,7306,13.31,73834.3,2.67,2.01,2.01,0,*4C
1493723055.33,7307,13.31,73828.5,2.67,2.01,1.97,0,*41
1493723056.57,7308,13.31,73834.3,2.69,1.93,1.93,0,*4C
1493723057.82,7309,13.31,73838.0,2.67,2.13,2.21,0,*42
1493723059.06,7310,13.31,73834.0,2.67,2.25,2.25,0,*4B
1493723060.28,7311,13.31,73838.5,2.67,2.35,2.43,0,*4B
1493723061.54,7312,13.31,73840.3,2.69,2.43,2.43,0,*47
1493723062.73,7313,13.25,73828.8,2.67,2.31,2.35,0,*4C
1493723063.99,7314,13.31,73834.8,2.69,2.43,2.43,0,*41
1493723065.23,7315,13.31,73834.3,2.67,2.13,2.09,0,*45
1493723066.48,7316,13.31,73838.0,2.69,2.21,2.21,0,*43
1493723067.72,7317,13.31,73838.0,2.67,2.25,2.25,0,*4C
1493723068.91,7318,13.31,73842.8,2.67,2.31,2.31,0,*43
1493723070.17,7319,13.31,73842.8,2.69,2.47,2.43,0,*48
1493723071.42,7320,13.31,73842.3,2.69,2.55,2.59,0,*4A
1493723072.67,7321,13.31,73836.5,2.69,2.43,2.43,0,*47
1493723073.86,7322,13.31,73832.3,2.67,2.31,2.31,0,*4A
1493723075.11,7323,13.31,73824.3,2.69,2.13,2.21,0,*44
1493723076.35,7324,13.31,73814.8,2.67,1.59,1.51,0,*44
1493723077.61,7325,13.25,73810.5,2.67,1.13,1.13,0,*4D
1493723078.86,7326,13.31,73816.8,2.69,1.17,1.13,0,*44
1493723080.12,7327,13.31,73826.0,2.67,1.29,1.21,0,*47
1493723081.33,7328,13.31,73830.5,2.65,1.47,1.47,0,*42
1493723082.58,7329,13.31,73828.0,2.63,1.85,1.85,0,*45
1493723083.83,7330,13.31,73830.5,2.63,2.13,2.05,0,*4A
1493723085.02,7331,13.31,73828.0,2.65,2.27,2.21,0,*4C
1493723086.27,7332,13.31,73824.8,2.63,2.17,2.17,0,*4F
1493723087.49,7333,13.31,73824.8,2.63,2.25,2.27,0,*4C
1493723088.68,7334,13.31,73824.5,2.63,2.35,2.35,0,*49
1493723089.91,7335,13.31,73822.0,2.65,2.43,2.43,0,*4E
1493723091.13,7336,13.31,73816.3,2.65,2.39,2.43,0,*40
1493723092.36,7337,13.31,73816.0,2.65,2.39,2.43,0,*41
1493723093.59,7338,13.31,73814.5,2.65,2.39,2.43,0,*4E
1493723094.81,7339,13.31,73818.3,2.65,2.55,2.55,0,*42
1493723096.03,7340,13.31,73818.3,2.65,2.55,2.55,0,*4C
1493723097.26,7341,13.31,73816.3,2.65,2.51,2.51,0,*4D
1493723098.48,7342,13.31,73818.3,2.65,2.39,2.39,0,*4E
1493723099.71,7343,13.31,73820.0,2.65,2.43,2.43,0,*4F
1493723100.9,7344,13.31,73818.8,2.67,2.35,2.35,0,*4A
1493723102.15,7345,13.31,73820.3,2.67,1.97,1.97,0,*4B
1493723103.34,7346,13.31,73816.0,2.67,1.83,1.83,0,*48
1493723104.59,7347,13.31,73816.0,2.67,1.93,1.93,0,*49
1493723105.81,7348,13.31,73808.8,2.67,1.85,1.83,0,*40
1493723107.03,7349,13.31,73810.5,2.65,1.67,1.67,0,*45
1493723108.23,7350,13.31,73814.0,2.63,1.79,1.75,0,*47
1493723109.42,7351,13.31,73804.5,2.63,1.75,1.79,0,*46
1493723110.62,7352,13.31,73814.0,2.63,1.79,1.79,0,*49
1493723111.83,7353,13.31,73816.5,2.65,1.67,1.71,0,*49
1493723113.05,7354,13.31,73816.3,2.65,1.67,1.59,0,*44
1493723114.29,7355,13.31,73816.3,2.63,1.55,1.55,0,*4E
1493723115.51,7356,13.31,73818.0,2.61,1.51,1.55,0,*4B
1493723116.73,7357,13.31,73816.8,2.61,1.93,1.93,0,*4E
1493723117.92,7358,13.31,73814.0,2.61,2.25,2.27,0,*43
1493723119.09,7359,13.31,73816.5,2.61,2.27,2.35,0,*43
1493723120.25,7360,13.31,73810.3,2.61,2.35,2.27,0,*49
1493723121.48,7361,13.31,73800.5,2.61,2.17,2.17,0,*4B
1493723122.73,7362,13.31,73808.5,2.59,1.97,2.09,0,*47
1493723123.96,7363,13.31,73806.5,2.61,1.85,1.85,0,*49
1493723125.18,7364,13.31,73816.5,2.61,1.17,1.17,0,*4E
1493723126.43,7365,13.31,73816.8,2.59,1.17,1.13,0,*40
1493723127.59,7366,13.31,73826.5,2.61,1.41,1.41,0,*4C
1493723128.78,7367,13.31,73824.0,2.59,0.97,0.97,0,*46
1493723130.02,7368,13.31,73820.3,2.59,1.51,1.59,0,*41
1493723131.22,7369,13.31,73828.3,2.59,1.83,1.83,0,*48
1493723132.46,7370,13.31,73830.8,2.59,1.71,1.71,0,*40
1493723133.66,7371,13.31,73830.5,2.59,1.83,1.83,0,*41
1493723134.89,7372,13.31,73826.3,2.57,1.29,1.37,0,*43
1493723136.06,7373,13.31,73828.5,2.57,1.83,1.83,0,*4D
1493723137.28,7374,13.31,73830.5,2.57,2.01,2.01,0,*4A
1493723138.52,7375,13.31,73834.3,2.59,2.21,2.13,0,*44
1493723139.77,7376,13.31,73838.5,2.59,1.97,1.89,0,*49
1493723140.99,7377,13.31,73846.8,2.59,1.85,1.83,0,*41
1493723142.24,7378,13.31,73842.3,2.59,1.71,1.71,0,*48
1493723143.41,7379,13.31,73842.8,2.57,1.75,1.75,0,*47
1493723144.61,7380,13.31,73834.3,2.59,1.83,1.83,0,*4F
1493723145.82,7381,13.31,73838.8,2.57,2.13,2.21,0,*41
1493723147.02,7382,13.31,73836.8,2.59,2.35,2.35,0,*4D
1493723148.26,7383,13.31,73840.3,2.59,2.47,2.47,0,*4C
1493723149.51,7384,13.31,73836.0,2.59,2.47,2.47,0,*4B
1493723150.73,7385,13.31,73842.0,2.61,2.51,2.59,0,*49
1493723151.98,7386,13.31,73838.0,2.59,2.43,2.47,0,*4D
1493723153.2,7387,13.31,73842.3,2.61,1.67,1.55,0,*42
1493723154.44,7388,13.31,73840.0,2.59,1.47,1.51,0,*40
1493723155.69,7389,13.31,73832.5,2.59,2.01,2.01,0,*46
1493723156.9,7390,13.31,73832.5,2.61,1.89,1.89,0,*45
1493723158.12,7391,13.31,73834.0,2.61,2.25,2.25,0,*44
1493723159.34,7392,13.31,73830.0,2.59,2.35,2.43,0,*4D
1493723160.57,7393,13.31,73836.8,2.61,2.17,2.17,0,*46
1493723161.82,7394,13.31,73834.8,2.59,2.13,2.17,0,*4E
1493723163.07,7395,13.31,73828.3,2.59,1.85,1.85,0,*4B
1493723164.32,7396,13.31,73836.3,2.59,1.97,1.97,0,*48
1493723165.52,7397,13.31,73836.0,2.61,1.85,1.79,0,*41
1493723166.73,7398,13.31,73832.5,2.61,1.89,1.93,0,*46
1493723167.93,7399,13.31,73838.3,2.61,1.79,1.85,0,*4F
1493723169.14,7400,13.31,73840.8,2.61,1.67,1.63,0,*4F
1493723170.38,7401,13.31,73840.8,2.59,1.89,2.01,0,*42
1493723171.63,7402,13.31,73846.0,2.59,2.25,2.25,0,*42
1493723172.8,7403,13.31,73844.5,2.61,2.35,2.35,0,*48
1493723174.02,7404,13.31,73852.0,2.61,2.13,2.05,0,*48
1493723175.23,7405,13.31,73844.0,2.59,1.75,1.71,0,*41
1493723176.43,7406,13.31,73836.8,2.61,1.75,1.67,0,*4E
1493723177.65,7407,13.31,73828.8,2.61,2.05,2.05,0,*4C
1493723178.87,7408,13.31,73830.8,2.61,2.47,2.47,0,*43
1493723180.1,7409,13.31,73836.3,2.61,2.51,2.51,0,*42
1493723181.32,7410,13.31,73842.3,2.61,2.51,2.51,0,*4A
1493723182.55,7411,13.31,73828.3,2.61,2.51,2.51,0,*4B
1493723183.75,7412,13.31,73824.0,2.63,2.65,2.65,0,*4A
1493723185.0,7413,13.31,73824.8,2.63,2.59,2.59,0,*4B
1493723186.24,7414,13.31,73818.0,2.63,2.39,2.39,0,*4C
1493723187.49,7415,13.31,73808.8,2.63,2.51,2.51,0,*4D
1493723188.72,7416,13.31,73810.8,2.63,2.59,2.61,0,*45
1493723189.96,7417,13.31,73812.8,2.67,2.69,2.73,0,*40
1493723191.21,7418,13.31,73816.0,2.67,2.59,2.59,0,*44
1493723192.46,7419,13.31,73820.5,2.63,2.51,2.51,0,*41
1493723193.7,7420,13.31,73822.3,2.65,2.51,2.51,0,*4D
1493723194.93,7421,13.31,73820.3,2.65,2.51,2.51,0,*4C
1493723196.12,7422,13.31,73822.3,2.65,2.61,2.69,0,*47
1493723197.36,7423,13.31,73822.5,2.67,2.69,2.69,0,*4C
1493723198.61,7424,13.31,73822.5,2.67,2.55,2.55,0,*4B
1493723199.86,7425,13.25,73816.0,2.69,2.43,2.43,0,*44
1493723201.11,7426,13.31,73814.3,2.67,2.09,2.13,0,*42
1493723202.36,7427,13.25,73810.0,2.69,1.93,1.93,0,*46
1493723203.58,7428,13.31,73816.8,2.67,1.85,1.83,0,*41
1493723204.78,7429,13.31,73818.5,2.67,1.75,1.75,0,*46
1493723206.0,7430,13.25,73824.5,2.65,1.89,1.93,0,*47
1493723207.21,7431,13.31,73822.3,2.65,1.71,1.59,0,*47
1493723208.45,7432,13.31,73820.8,2.63,1.67,1.67,0,*48
1493723209.67,7433,13.31,73826.8,2.63,1.67,1.75,0,*4A
1493723210.91,7434,13.25,73824.5,2.63,1.51,1.63,0,*4F
1493723212.1,7435,13.31,73824.0,2.63,1.79,1.79,0,*4F
1493723213.33,7436,13.31,73818.5,2.65,2.09,2.05,0,*46
1493723214.52,7437,13.31,73808.3,2.65,2.21,2.27,0,*4D
1493723215.76,7438,13.25,73816.3,2.63,1.93,2.05,0,*4E
1493723217.0,7439,13.31,73808.8,2.63,2.13,2.25,0,*46
1493723218.25,7440,13.25,73820.5,2.63,2.13,2.13,0,*4D
1493723219.5,7441,13.31,73822.0,2.63,2.17,2.13,0,*48
1493723220.76,7442,13.31,73824.0,2.63,1.21,1.09,0,*45
1493723221.99,7443,13.25,73828.3,2.63,0.59,0.59,0,*4E
1493723223.22,7444,13.25,73826.3,2.61,1.33,1.33,0,*4B
1493723224.43,7445,13.31,73830.0,2.61,2.25,2.25,0,*4A
1493723225.61,7446,13.31,73830.3,2.61,2.65,2.65,0,*49
1493723226.81,7447,13.25,73824.8,2.63,2.61,2.65,0,*4E
1493723228.05,7448,13.31,73830.8,2.63,2.39,2.47,0,*4C
1493723229.31,7449,13.31,73826.0,2.63,2.17,2.17,0,*44
1493723230.55,7450,13.25,73826.3,2.63,2.47,2.47,0,*4C
1493723231.8,7451,13.31,73824.8,2.63,2.17,2.25,0,*4C
1493723233.04,7452,13.25,73824.5,2.63,1.93,1.93,0,*4E
1493723234.26,7453,13.25,73820.3,2.65,2.05,2.09,0,*45
1493723235.46,7454,13.31,73830.8,2.65,2.31,2.43,0,*4B
1493723236.68,7455,13.31,73828.3,2.63,2.35,2.39,0,*45
1493723237.93,7456,13.25,73832.3,2.63,2.25,2.17,0,*4B
1493723239.15,7457,13.25,73830.0,2.65,1.93,1.93,0,*4D
1493723240.39,7458,13.31,73826.5,2.63,1.09,1.13,0,*4F
1493723241.64,7459,13.31,73824.3,2.63,1.55,1.51,0,*41
1493723242.86,7460,13.31,73822.3,2.65,2.05,1.97,0,*41
1493723244.05,7461,13.31,73822.3,2.63,1.79,1.75,0,*42
1493723245.27,7462,13.25,73812.3,2.63,1.79,1.85,0,*4E
1493723246.46,7463,13.31,73816.0,2.65,0.97,0.95,0,*48
1493723247.69,7464,13.31,73826.8,2.63,0.37,0.37,0,*4B
1493723248.92,7465,13.31,73820.8,2.59,0.63,0.51,0,*42
1493723250.15,7466,13.25,73816.3,2.57,1.13,1.13,0,*4E
1493723251.32,7467,13.25,73822.0,2.57,1.75,1.83,0,*46
1493723252.54,7468,13.31,73822.8,2.59,1.51,1.41,0,*4F
1493723253.78,7469,13.31,73824.0,2.59,1.89,1.97,0,*40
1493723255.02,7470,13.31,73824.5,2.59,1.89,1.85,0,*4B
1493723256.27,7471,13.31,73822.8,2.59,1.71,1.51,0,*44
1493723257.48,7472,13.31,73834.8,2.59,1.75,1.71,0,*41
1493723258.68,7473,13.31,73828.3,2.61,1.85,1.79,0,*4C
1493723259.93,7474,13.25,73828.8,2.59,1.63,1.63,0,*43
1493723261.17,7475,13.31,73830.5,2.59,2.13,2.21,0,*43
1493723262.42,7476,13.31,73826.8,2.59,2.47,2.55,0,*42
1493723263.64,7477,13.25,73826.3,2.61,2.47,2.59,0,*44
1493723264.87,7478,13.25,73826.8,2.61,2.51,2.51,0,*44
1493723266.05,7479,13.31,73826.3,2.61,2.65,2.65,0,*45
1493723267.23,7480,13.31,73822.0,2.61,2.65,2.61,0,*47
1493723268.4,7481,13.31,73820.8,2.61,2.65,2.65,0,*42
1493723269.6,7482,13.31,73820.0,2.63,2.61,2.65,0,*47
1493723270.83,7483,13.31,73816.0,2.63,2.59,2.61,0,*49
1493723272.07,7484,13.31,73820.5,2.63,2.47,2.47,0,*45
1493723273.29,7485,13.25,73820.8,2.65,2.55,2.55,0,*42
1493723274.49,7486,13.31,73826.8,2.63,2.61,2.65,0,*43
1493723275.73,7487,13.31,73822.3,2.67,2.73,2.73,0,*42
1493723276.97,7488,13.31,73818.0,2.67,2.73,2.81,0,*40
1493723278.22,7489,13.25,73820.0,2.67,2.47,2.59,0,*43
1493723279.43,7490,13.25,73820.8,2.67,2.65,2.65,0,*44
1493723280.65,7491,13.25,73818.8,2.69,2.43,2.35,0,*4A
1493723281.91,7492,13.31,73820.5,2.69,2.13,2.13,0,*48
1493723283.15,7493,13.25,73818.5,2.67,2.25,2.21,0,*43
1493723284.34,7494,13.31,73822.8,2.67,2.35,2.35,0,*40
1493723285.59,7495,13.31,73820.5,2.67,2.13,2.13,0,*41
1493723286.84,7496,13.31,73828.8,2.67,1.29,1.29,0,*42
1493723288.1,7497,13.25,73828.5,2.67,1.85,1.85,0,*43
1493723289.34,7498,13.25,73834.0,2.67,1.63,1.63,0,*4C
1493723290.58,7499,13.25,73842.0,2.67,2.25,2.21,0,*49
1493723291.83,7500,13.25,73842.3,2.67,2.47,2.55,0,*4F
1493723293.05,7501,13.25,73846.0,2.65,2.43,2.39,0,*42
1493723294.3,7502,13.25,73840.8,2.67,2.59,2.69,0,*4D
1493723295.54,7503,13.25,73840.3,2.67,2.73,2.73,0,*4F
1493723296.75,7504,13.25,73836.3,2.67,2.65,2.65,0,*48
1493723298.0,7505,13.31,73834.0,2.67,2.59,2.59,0,*49
1493723299.25,7506,13.31,73832.5,2.69,2.59,2.59,0,*44
1493723300.5,7507,13.31,73830.3,2.67,2.59,2.59,0,*4B
1493723301.75,7508,13.25,73830.5,2.69,2.47,2.47,0,*4A
1493723303.0,7509,13.31,73828.0,2.69,2.47,2.47,0,*4B
1493723304.2,7510,13.25,73822.5,2.69,2.31,2.35,0,*47
1493723305.4,7511,13.31,73828.0,2.69,2.35,2.35,0,*42
1493723306.65,7512,13.25,73826.3,2.69,1.25,1.17,0,*40
1493723307.9,7513,13.31,73830.0,2.69,1.93,1.93,0,*40
1493723309.12,7514,13.25,73826.8,2.69,1.63,1.41,0,*47
1493723310.31,7515,13.25,73828.3,2.69,0.97,1.01,0,*78
1493723311.57,7516,13.25,73834.3,2.67,1.85,1.85,0,*4B
1493723312.76,7517,13.25,73836.3,2.67,1.75,1.75,0,*4A
1493723314.0,7518,13.25,73838.0,2.67,2.21,2.21,0,*45
1493723315.24,7519,13.25,73838.8,2.67,2.25,2.21,0,*40
1493723316.49,7520,13.31,73836.3,2.67,2.47,2.55,0,*4D
1493723317.69,7521,13.31,73834.8,2.69,2.35,2.35,0,*41
1493723318.94,7522,13.31,73830.0,2.69,2.47,2.55,0,*41
1493723320.16,7523,13.25,73818.3,2.69,2.35,2.43,0,*42
1493723321.34,7524,13.31,73820.3,2.71,2.27,2.35,0,*4E
1493723322.59,7525,13.31,73816.0,2.69,2.09,2.01,0,*4D
1493723323.83,7526,13.25,73820.5,2.67,1.51,1.51,0,*48
1493723325.08,7527,13.31,73824.5,2.67,1.37,1.37,0,*49
1493723326.34,7528,13.31,73828.3,2.67,1.37,1.37,0,*46
1493723327.6,7529,13.25,73828.3,2.67,1.29,1.13,0,*4E
1493723328.85,7530,13.25,73832.8,2.67,1.37,1.29,0,*40
1493723330.09,7531,13.31,73834.3,2.67,1.71,1.63,0,*4D
1493723331.34,7532,13.31,73830.3,2.63,2.13,2.05,0,*4E
1493723332.54,7533,13.31,73830.5,2.65,2.31,2.39,0,*46
1493723333.78,7534,13.31,73826.0,2.63,2.51,2.47,0,*48
1493723335.0,7535,13.25,73824.3,2.65,2.55,2.55,0,*48
1493723336.2,7536,13.25,73828.5,2.65,2.65,2.69,0,*47
1493723337.45,7537,13.31,73830.8,2.67,2.73,2.81,0,*45
1493723338.69,7538,13.25,73828.3,2.67,2.73,2.81,0,*4A
1493723339.89,7539,13.31,73834.0,2.69,2.91,2.95,0,*4C
1493723341.15,7540,13.31,73830.3,2.69,2.81,2.81,0,*46
1493723342.4,7541,13.25,73828.0,2.69,2.59,2.59,0,*47
1493723343.63,7542,13.25,73830.8,2.69,2.59,2.65,0,*4B